Wind_Speed
85 83 81 80 77 75 73 73 73 73 73 75 76 75 74 74 73 72 71 70 68 66 63 58 49 46 40
85 83 82 80 78 78 79 78 78 79 80 82 82 82 82 83 82 81 79 76 75 73 71 68 62 52 46
82 80 79 78 77 79 80 83 84 85 88 91 90 92 92 92 90 90 90 89 87 82 79 77 74 69 60
78 74 74 75 75 76 80 85 87 92 95 98 100 101 102 102 101 100 100 100 98 96 92 88 86 83 78
73 73 74 77 80 83 86 89 94 99 102 105 107 109 112 112 112 113 112 111 109 107 106 103 100 96 92
80 83 86 90 92 95 97 99 102 106 110 112 117 120 124 126 125 126 125 124 123 120 117 114 111 107 103
91 95 98 102 104 106 109 112 115 118 123 122 126 128 132 134 137 136 134 132 131 130 128 125 122 120 116
105 108 110 113 115 117 119 122 124 125 131 130 131 129 130 132 135 135 132 128 128 126 125 125 127 126 124
116 119 122 124 126 126 126 125 124 124 129 128 125 122 122 121 122 122 119 116 113 110 110 111 113 117 119
125 127 128 127 128 127 123 122 122 118 121 117 114 111 106 112 112 112 108 105 100 98 99 101 104 108 109
125 126 125 124 123 122 120 115 110 108 107 103 99 95 90 89 95 93 90 87 85 84 84 88 91 98 102
120 120 116 114 111 108 108 106 101 94 91 86 80 79 78 77 79 81 79 77 73 74 73 75 80 87 91
113 109 106 105 104 102 99 92 87 80 75 71 67 68 69 69 71 71 71 69 64 65 67 69 73 77 81
103 102 103 101 95 88 83 79 76 71 65 62 61 61 63 62 62 65 64 66 59 60 63 64 67 71 76
99 96 92 87 83 77 73 71 68 65 63 57 53 56 58 57 56 56 58 57 58 56 58 61 64 67 68
89 84 80 76 73 69 67 65 62 60 57 55 53 51 51 50 54 50 51 51 53 54 54 56 60 61 64
79 75 73 69 66 63 61 60 58 55 51 50 50 48 47 44 45 50 46 48 49 51 50 52 54 58 60
Wind_Direction
291 289 288 288 284 278 270 266 265 268 269 271 272 272 272 273 272 272 273 274 276 278 278 277 272 269 265
290 287 285 282 278 276 272 268 268 269 271 273 273 273 272 273 273 274 274 274 274 274 275 275 273 263 258
286 284 282 278 275 273 270 269 270 271 273 274 274 274 274 274 273 273 273 274 273 272 271 271 270 269 260
285 282 278 275 273 270 270 270 271 273 274 274 275 275 275 274 274 273 273 273 272 272 271 268 267 266 264
284 282 279 276 274 272 271 271 271 273 274 275 275 276 276 275 275 274 273 271 270 268 267 265 264 262 260
285 283 281 279 278 277 276 275 274 277 277 276 277 277 276 276 275 273 271 269 268 266 264 263 261 259 257
285 284 284 283 282 284 284 283 282 280 279 277 276 275 275 274 272 270 268 266 265 264 262 260 258 256 254
287 286 286 285 285 285 284 282 282 281 279 276 276 275 275 275 273 272 271 269 266 263 262 259 257 255 253
291 291 291 290 289 288 285 283 282 282 281 281 281 279 277 276 275 273 272 269 267 264 261 258 255 252 250
293 292 290 289 288 289 288 287 286 285 282 281 281 280 278 276 273 272 271 269 267 265 260 256 254 250 247
291 290 291 291 291 290 289 288 286 286 284 284 283 281 279 274 274 271 270 268 267 264 259 255 252 247 244
293 293 293 292 290 290 290 290 289 287 285 285 282 279 277 274 271 271 269 267 264 261 258 254 249 246 242
296 295 294 293 293 293 292 292 290 288 286 284 282 279 276 274 272 270 270 266 263 260 256 252 248 245 242
296 297 295 295 295 295 294 293 291 290 287 285 283 279 276 273 271 271 268 268 263 258 255 250 247 243 241
297 297 296 296 296 296 295 293 292 292 290 287 283 280 277 276 272 269 268 265 264 258 254 251 247 244 240
299 298 298 297 296 296 295 294 294 292 292 291 288 282 278 277 275 270 267 264 261 258 253 249 247 245 240
300 299 298 298 297 297 297 296 295 294 295 294 289 285 283 278 274 274 267 262 259 257 252 248 245 243 239
Height
10518 10512 10507 10505 10501 10502 10503 10504 10503 10500 10499 10498 10496 10496 10495 10495 10496 10496 10498 10499 10500 10502 10504 10508 10513 10517 10519
10498 10489 10485 10480 10478 10475 10475 10476 10477 10475 10474 10472 10471 10471 10470 10470 10469 10469 10472 10476 10479 10481 10484 10488 10493 10500 10505
10472 10467 10462 10455 10455 10452 10452 10450 10449 10450 10447 10442 10443 10441 10440 10440 10441 10443 10446 10448 10452 10456 10460 10463 10469 10476 10484
10444 10443 10439 10434 10433 10432 10429 10425 10425 10420 10416 10412 10411 10408 10406 10406 10409 10411 10414 10417 10420 10423 10429 10435 10441 10448 10456
10418 10416 10414 10410 10409 10407 10406 10405 10401 10393 10386 10380 10377 10374 10369 10367 10369 10370 10373 10377 10382 10387 10393 10399 10407 10416 10424
10394 10390 10386 10381 10378 10376 10374 10371 10371 10363 10353 10349 10338 10332 10324 10322 10323 10321 10324 10328 10332 10340 10350 10356 10364 10374 10384
10370 10361 10356 10347 10345 10342 10337 10332 10327 10320 10305 10305 10292 10288 10276 10273 10264 10262 10267 10274 10280 10288 10297 10307 10316 10325 10337
10335 10329 10322 10314 10307 10304 10297 10289 10281 10272 10249 10245 10240 10239 10232 10221 10210 10204 10208 10217 10225 10234 10243 10253 10263 10273 10284
10298 10288 10278 10267 10256 10251 10242 10236 10231 10222 10198 10189 10191 10187 10181 10172 10159 10151 10154 10159 10168 10181 10190 10200 10209 10217 10229
10258 10245 10233 10221 10208 10198 10193 10188 10177 10174 10150 10147 10140 10134 10140 10121 10114 10105 10108 10112 10122 10132 10142 10151 10158 10166 10181
10221 10205 10193 10178 10166 10153 10143 10137 10132 10123 10111 10106 10100 10091 10090 10085 10066 10067 10072 10077 10086 10091 10098 10105 10111 10120 10134
10181 10166 10154 10140 10126 10115 10104 10096 10088 10085 10074 10068 10067 10057 10051 10048 10039 10035 10041 10047 10055 10057 10064 10068 10073 10082 10094
10143 10128 10114 10102 10090 10081 10068 10061 10049 10047 10044 10039 10035 10028 10023 10018 10013 10012 10013 10018 10027 10029 10033 10038 10042 10049 10059
10107 10093 10079 10067 10057 10050 10040 10029 10022 10017 10017 10015 10008 10002 9995 9994 9991 9989 9992 9990 10001 10004 10004 10010 10014 10021 10030
10077 10065 10051 10039 10029 10022 10014 10004 9999 9993 9988 9989 9987 9979 9973 9971 9970 9970 9968 9972 9973 9979 9982 9987 9989 9996 10007
10046 10035 10025 10015 10007 9999 9992 9984 9977 9972 9969 9965 9961 9956 9954 9953 9945 9949 9950 9951 9951 9954 9960 9964 9967 9974 9983
10019 10009 10001 9993 9986 9978 9971 9964 9958 9954 9952 9946 9939 9936 9932 9933 9931 9926 9930 9930 9931 9933 9939 9943 9948 9952 9960